Weather Roundup
Issued by NWS Chicago, IL

Home | Current Version | Previous Version | Text Only | Print | Product List | Glossary Off
Versions: 1 2 3 4 5 6 7 8 9 10 11 12 13 14 15 16 17 18 19 20 21 22 23 24 25 26 27 28 29 30 31 32 33 34 35 36 37 38 39 40 41 42 43 44 45 46 47 48 49 50

000
NZUS59 KLOT 250506
HRRLOT

CHICAGO AREA WEATHER ROUNDUP
NATIONAL WEATHER SERVICE CHICAGO/ROMEOVILLE IL
1200 AM CDT SAT OCT 25 2014

NOTE: "FAIR" INDICATES FEW OR NO CLOUDS BELOW 12,000 FEET WITH NO
SIGNIFICANT WEATHER AND/OR OBSTRUCTIONS TO VISIBILITY.

* THESE STATIONS ARE NOT UNDER NWS QUALITY CONTROL. THEY ALSO MAY NOT
  REPORT WEATHER SUCH AS PRECIPITATION OR FOG.

ILZ005-006-012>014-019>023-250600-
NORTHEAST ILLINOIS

CITY           SKY/WX    TMP DP  RH WIND       PRES   REMARKS
OHARE          MOCLDY    60  49  66 SW6       29.92F
MIDWAY         CLOUDY    62  51  67 SW8       29.93F
AURORA         CLOUDY    57  49  74 SW5       29.93F
LANSING*       CLOUDY    58  51  77 SW7       29.94F
JOLIET*        PTCLDY    54  51  92 CALM      29.93F
WAUKEGAN       CLOUDY    56  49  77 SW6       29.91F
DUPAGE AIRPORT CLOUDY    58  50  75 SW7       29.93S
WHEELING       CLOUDY    62  48  60 SW7       29.94F
KANKAKEE*      CLOUDY    58  54  86 SW8       29.96S
MORRIS*        MOCLDY    55  53  94 CALM      29.92F
LEWIS AIRPORT* PTCLDY    56  51  83 SW6       29.93F
NORTHERLY IS     N/A     62  49  62 W6          N/A
$$

WIZ051-052-058>065-066-070>072-250600-
SOUTHEAST WISCONSIN

CITY           SKY/WX    TMP DP  RH WIND       PRES   REMARKS
MILWAUKEE      CLOUDY    56  49  77 SW8       29.90F
KENOSHA*       CLOUDY    56  50  80 SW5       29.91F
RACINE*        CLOUDY    57  48  72 SW8       29.91F
BURLINGTON     MOCLDY    53  47  82 SW7       29.90F
WAUKESHA       CLOUDY    52  48  87 S7        29.90F
WEST BEND      CLOUDY    57  45  62 SW8       29.86F
$$

INZ001>003-010>013-019-020-250600-
NORTHWEST INDIANA

CITY           SKY/WX    TMP DP  RH WIND       PRES   REMARKS
GARY*          CLOUDY    60  50  69 SW6       29.94F
MICHIGAN CITY* NOT AVBL
RENSSELAER*    NOT AVBL
VALPARAISO     CLOUDY    55  48  77 SW7       29.96S
$$

LMZ740>746-250600-
SOUTHERN LAKE MICHIGAN

STATION/POSITION TIME  SKY/WX   TEMP WIND        PRES    VSBY
                                AIR  DIR/SP/G
                 (UTC)          (F)  (DEG/KT/KT) (MB)    (MI)
HARRISON CRIB    0400            63  230/ 15/ 22   N/A
BURNHAM HARBOR   0500            62  230/  4/ 11   N/A
CALUMET HARBOR   0500            60  210/  6/  9 1012.3F
BURNS HARBOR     NOT AVBL
MICHIGAN CITY    0500            57  180/  7/  8   N/A
$$

ABBREVIATIONS USED IN REMARKS
   TC - TEMPERATURE IN CELSIUS
  WCI - WIND CHILL INDEX
   HX - HEAT INDEX
  VSB - VISIBILITY
$$



USA.gov is the U.S. government's official web portal to all federal, state and local government web resources and services.